Weather History for Marshall, MN

Change the Weather History Date:

Tuesday, November 20, 2012

  Actual Average Record
Temperature  
Mean Temperature 43 °F -  
Max Temperature 62 °F 35 °F 62 °F (1990)
Min Temperature 24 °F 20 °F 0 °F (1985)
Degree Days  
Heating Degree Days 22    
Moisture  
Dew Point 26 °F    
Average Humidity 58    
Maximum Humidity 93    
Minimum Humidity 22    
Precipitation  
Precipitation 0.00 in - - ()
Sea Level Pressure  
Sea Level Pressure 30.08 in    
Wind  
Wind Speed 10 mph (SSW)    
Max Wind Speed 24 mph    
Max Gust Speed 30 mph    
Visibility 9 miles    
Events      
Averages and records for this station are not official NWS values.
T = Trace of Precipitation, MM = Missing Value Source: NWS Daily Summary

Daily Weather History Graph

Daily Weather History Graph

Search for Another Location

Airport:

Trip Planner

Search our weather history database for the weather conditions in past years. The results will help you decide how hot, cold, wet, or windy it might be!

Date:

Astronomy

Nov. 20, 2012 Rise Set
Actual Time 7:26 AM CST 4:51 PM CST
Civil Twilight 6:54 AM CST 5:22 PM CST
Nautical Twilight 6:19 AM CST 5:58 PM CST
Astronomical Twilight 5:44 AM CST 6:33 PM CST
Moon 12:53 PM CST No Moon Set
Length of Visible Light 10h 28m
Length of Day
9h 24m
First Quarter, 51% of the Moon is Illuminated
Nov 20
First Quarter
Nov 28
Full
Dec 6
Last Quarter
Dec 13
New
Dec 19
First Quarter

Hourly Weather History & Observations

Time (CST) Temp. Windchill Dew Point Humidity Pressure Visibility Wind Dir Wind Speed Gust Speed Precip Events Conditions
12:15 AM 32.0 °F 24.8 °F 26.6 °F 80% 30.14 in 10.0 mi NW 8.1 mph - N/A   Clear
12:35 AM 30.2 °F 21.9 °F 26.6 °F 86% 30.14 in 10.0 mi WNW 9.2 mph - N/A   Clear
12:55 AM 30.2 °F 21.3 °F 26.6 °F 86% 30.14 in 10.0 mi WNW 10.4 mph - N/A   Clear
1:15 AM 30.2 °F 21.9 °F 26.6 °F 86% 30.14 in 10.0 mi NW 9.2 mph - N/A   Clear
1:35 AM 28.4 °F 20.4 °F 24.8 °F 86% 30.15 in 10.0 mi NW 8.1 mph - N/A   Clear
1:55 AM 28.4 °F 19.7 °F 24.8 °F 86% 30.15 in 10.0 mi NW 9.2 mph - N/A   Clear
2:15 AM 28.4 °F 19.7 °F 24.8 °F 86% 30.15 in 10.0 mi NW 9.2 mph - N/A   Clear
2:35 AM 28.4 °F 21.2 °F 24.8 °F 86% 30.15 in 9.0 mi NW 6.9 mph - N/A   Clear
2:55 AM 28.4 °F 19.7 °F 24.8 °F 86% 30.16 in 8.0 mi NW 9.2 mph - N/A   Clear
3:15 AM 26.6 °F 17.5 °F 23.0 °F 86% 30.17 in 8.0 mi WNW 9.2 mph - N/A   Clear
3:35 AM 26.6 °F 18.2 °F 23.0 °F 86% 30.17 in 8.0 mi WNW 8.1 mph - N/A   Clear
3:55 AM 26.6 °F 18.2 °F 23.0 °F 86% 30.17 in 7.0 mi West 8.1 mph - N/A   Clear
4:15 AM 26.6 °F 18.2 °F 21.2 °F 80% 30.16 in 7.0 mi West 8.1 mph - N/A   Clear
4:35 AM 26.6 °F 18.2 °F 24.8 °F 93% 30.15 in 6.0 mi West 8.1 mph - N/A   Clear
4:55 AM 24.8 °F 16.9 °F 21.2 °F 86% 30.15 in 7.0 mi West 6.9 mph - N/A   Clear
5:15 AM 26.6 °F 18.2 °F 21.2 °F 80% 30.16 in 6.0 mi West 8.1 mph - N/A   Clear
5:35 AM 26.6 °F 20.0 °F 23.0 °F 86% 30.16 in 5.0 mi West 5.8 mph - N/A   Clear
6:15 AM 26.6 °F 19.1 °F 21.2 °F 80% 30.15 in 5.0 mi West 6.9 mph - N/A   Clear
6:35 AM 24.8 °F 19.1 °F 21.2 °F 86% 30.16 in 5.0 mi WSW 4.6 mph - N/A   Clear
6:55 AM 24.8 °F 19.1 °F 21.2 °F 86% 30.16 in 5.0 mi West 4.6 mph - N/A   Clear
7:15 AM 24.8 °F 19.1 °F 19.4 °F 80% 30.17 in 5.0 mi West 4.6 mph - N/A   Clear
7:35 AM 24.8 °F 17.9 °F 21.2 °F 86% 30.18 in 5.0 mi WSW 5.8 mph - N/A   Clear
7:55 AM 24.8 °F 19.1 °F 21.2 °F 86% 30.18 in 5.0 mi WSW 4.6 mph - N/A   Clear
8:15 AM 26.6 °F 21.2 °F 24.8 °F 93% 30.18 in 5.0 mi WSW 4.6 mph - N/A   Clear
8:35 AM 30.2 °F - 24.8 °F 80% 30.18 in 5.0 mi Calm Calm - N/A   Clear
8:55 AM 30.2 °F 26.7 °F 26.6 °F 86% 30.17 in 5.0 mi South 3.5 mph - N/A   Clear
9:15 AM 33.8 °F 29.6 °F 28.4 °F 81% 30.16 in 6.0 mi SSE 4.6 mph - N/A   Clear
9:35 AM 35.6 °F 30.7 °F 30.2 °F 81% 30.15 in 9.0 mi SSE 5.8 mph - N/A   Clear
9:55 AM 39.2 °F 35.0 °F 32.0 °F 75% 30.15 in 9.0 mi South 5.8 mph - N/A   Clear
10:15 AM 42.8 °F 39.3 °F 33.8 °F 70% 30.15 in 10.0 mi South 5.8 mph - N/A   Clear
10:35 AM 44.6 °F 41.4 °F 35.6 °F 71% 30.15 in 10.0 mi South 5.8 mph - N/A   Clear
10:55 AM 48.2 °F - 33.8 °F 58% 30.15 in 10.0 mi South 6.9 mph - N/A   Clear
11:15 AM 50.0 °F - 33.8 °F 54% 30.13 in 10.0 mi SE 6.9 mph - N/A   Clear
11:35 AM 51.8 °F - 30.2 °F 44% 30.14 in 10.0 mi South 5.8 mph - N/A   Clear
11:55 AM 53.6 °F - 30.2 °F 41% 30.13 in 10.0 mi South 8.1 mph - N/A   Clear
12:15 PM 55.4 °F - 30.2 °F 38% 30.12 in 10.0 mi South 5.8 mph - N/A   Clear
12:35 PM 57.2 °F - 26.6 °F 31% 30.10 in 10.0 mi South 8.1 mph - N/A   Clear
12:55 PM 59.0 °F - 24.8 °F 27% 30.10 in 10.0 mi South 6.9 mph - N/A   Clear
1:15 PM 59.0 °F - 21.2 °F 23% 30.08 in 10.0 mi South 9.2 mph - N/A   Clear
1:35 PM 60.8 °F - 21.2 °F 22% 30.07 in 10.0 mi South 9.2 mph - N/A   Clear
1:55 PM 60.8 °F - 24.8 °F 25% 30.06 in 10.0 mi South 10.4 mph - N/A   Clear
2:15 PM 60.8 °F - 23.0 °F 23% 30.06 in 10.0 mi SSW 11.5 mph - N/A   Clear
2:35 PM 60.8 °F - 21.2 °F 22% 30.05 in 10.0 mi South 11.5 mph - N/A   Clear
2:55 PM 62.6 °F - 23.0 °F 22% 30.04 in 10.0 mi South 11.5 mph 16.1 mph N/A   Clear
3:15 PM 60.8 °F - 23.0 °F 23% 30.03 in 10.0 mi South 11.5 mph - N/A   Clear
3:35 PM 60.8 °F - 23.0 °F 23% 30.03 in 10.0 mi South 13.8 mph - N/A   Clear
3:55 PM 60.8 °F - 23.0 °F 23% 30.03 in 10.0 mi South 12.7 mph - N/A   Clear
4:15 PM 59.0 °F - 23.0 °F 25% 30.03 in 10.0 mi South 10.4 mph - N/A   Clear
4:35 PM 57.2 °F - 24.8 °F 29% 30.03 in 10.0 mi South 10.4 mph - N/A   Clear
4:55 PM 55.4 °F - 24.8 °F 31% 30.02 in 10.0 mi SSE 11.5 mph - N/A   Clear
5:15 PM 53.6 °F - 26.6 °F 35% 30.02 in 10.0 mi SSE 10.4 mph - N/A   Clear
5:35 PM 51.8 °F - 26.6 °F 38% 30.01 in 10.0 mi SSE 11.5 mph - N/A   Clear
5:55 PM 51.8 °F - 26.6 °F 38% 30.01 in 10.0 mi SSE 12.7 mph - N/A   Clear
6:15 PM 50.0 °F - 26.6 °F 40% 30.01 in 10.0 mi South 12.7 mph - N/A   Clear
6:35 PM 48.2 °F - 28.4 °F 46% 30.01 in 10.0 mi SSE 13.8 mph - N/A   Clear
6:55 PM 48.2 °F - 28.4 °F 46% 30.00 in 10.0 mi SSE 12.7 mph - N/A   Clear
7:15 PM 50.0 °F - 28.4 °F 43% 30.01 in 10.0 mi South 13.8 mph 19.6 mph N/A   Clear
7:35 PM 48.2 °F - 28.4 °F 46% 29.99 in 10.0 mi South 18.4 mph - N/A   Clear
7:55 PM 48.2 °F - 28.4 °F 46% 29.99 in 10.0 mi South 17.3 mph - N/A   Clear
8:15 PM 48.2 °F - 28.4 °F 46% 29.99 in 10.0 mi South 17.3 mph 21.9 mph N/A   Clear
8:35 PM 50.0 °F - 28.4 °F 43% 29.98 in 10.0 mi SSW 21.9 mph 27.6 mph N/A   Clear
8:55 PM 51.8 °F - 28.4 °F 41% 29.97 in 10.0 mi SSW 23.0 mph 27.6 mph N/A   Clear
9:15 PM 50.0 °F - 30.2 °F 47% 29.97 in 10.0 mi SSW 23.0 mph 26.5 mph N/A   Clear
9:35 PM 50.0 °F - 30.2 °F 47% 29.96 in 10.0 mi SSW 23.0 mph 28.8 mph N/A   Clear
9:55 PM 50.0 °F - 30.2 °F 47% 29.95 in 10.0 mi SSW 24.2 mph 28.8 mph N/A   Clear
10:15 PM 50.0 °F - 30.2 °F 47% 29.95 in 10.0 mi SSW 21.9 mph 29.9 mph N/A   Clear
10:35 PM 50.0 °F - 30.2 °F 47% 29.93 in 10.0 mi SSW 21.9 mph 26.5 mph N/A   Clear
10:55 PM 50.0 °F - 32.0 °F 50% 29.94 in 10.0 mi SSW 23.0 mph 27.6 mph N/A   Clear
11:15 PM 50.0 °F - 32.0 °F 50% 29.93 in 10.0 mi SSW 23.0 mph 27.6 mph N/A   Clear
11:35 PM 50.0 °F - 32.0 °F 50% 29.93 in 10.0 mi SSW 20.7 mph 28.8 mph N/A   Clear
11:55 PM 48.2 °F - 32.0 °F 54% 29.93 in 10.0 mi SSW 20.7 mph - N/A   Clear